This demonstration page uses our WeatherBlox Daily Observations layout. Learn more.

Left ArrowRight Arrow

Hourly Observations for February 21, 2018

Temp ( °F °C ) Dew Point ( °F °C ) Humidity (%) Winds ( mph kmh ) Pressure ( in mb ) Visibility ( mi km ) Precip ( " mm )
12:54 am 00:54 Clear 10 -12.2 4 -15.6 76 76 NNW 7 11 30.59 1036 10 16 0.00 0.00
1:54 am 01:54 Clear 9 -12.8 3 -16.1 77 77 NNW 7 11 30.60 1036 10 16 0.00 0.00
2:54 am 02:54 Clear 9 -12.8 2 -16.7 73 73 NNW 6 9 30.61 1037 10 16 0.00 0.00
3:54 am 03:54 Clear 7 -13.9 2 -16.7 80 80 N 7 11 30.62 1037 10 16 0.00 0.00
4:54 am 04:54 Clear 7 -13.9 1 -17.2 76 76 Calm 30.65 1038 10 16 0.00 0.00
5:54 am 05:54 Clear 7 -13.9 1 -17.2 76 76 Calm 30.66 1038 10 16 0.00 0.00
6:54 am 06:54 Clear 6 -14.4 1 -17.2 79 79 Calm 30.68 1039 10 16 0.00 0.00
7:54 am 07:54 Sunny 8 -13.3 1 -17.2 73 73 N 6 9 30.68 1039 10 16 0.00 0.00
8:54 am 08:54 Sunny 10 -12.2 3 -16.1 73 73 NNW 3 6 30.72 1040 10 16 0.00 0.00
9:54 am 09:54 Sunny 14 -10 4 -15.6 64 64 NE 6 9 30.73 1041 10 16 0.00 0.00
10:54 am 10:54 Sunny 18 -7.8 3 -16.1 52 52 ENE 6 9 30.72 1040 10 16 0.00 0.00
11:54 am 11:54 Sunny 21 -6.1 5 -15 50 50 ENE 7 11 30.71 1040 10 16 0.00 0.00
12:54 pm 12:54 Sunny 23 -5 3 -16.1 42 42 ENE 7 11 30.68 1039 10 16 0.00 0.00
1:54 pm 13:54 Sunny 25 -3.9 6 -14.4 44 44 VRB 3 6 30.65 1038 10 16 0.00 0.00
2:54 pm 14:54 Sunny 26 -3.3 7 -13.9 44 44 VRB 7 11 30.61 1037 10 16 0.00 0.00
3:54 pm 15:54 Sunny 27 -2.8 9 -12.8 46 46 NE 12 19 30.60 1036 10 16 0.00 0.00
4:54 pm 16:54 Mostly Cloudy 25 -3.9 9 -12.8 50 50 ENE 10 17 30.63 1037 10 16 0.00 0.00
5:54 pm 17:54 Cloudy 25 -3.9 10 -12.2 53 53 ENE 8 13 30.62 1037 10 16 0.00 0.00
6:54 pm 18:54 Cloudy 25 -3.9 11 -11.7 55 55 E 10 17 30.61 1037 10 16 0.00 0.00
7:54 pm 19:54 Cloudy 25 -3.9 13 -10.6 60 60 ENE 12 19 30.59 1036 10 16 0.00 0.00
8:54 pm 20:54 Cloudy 25 -3.9 14 -10 63 63 NE 13 20 30.59 1036 10 16 0.00 0.00
9:54 pm 21:54 Cloudy 25 -3.9 15 -9.4 66 66 NE 9 15 30.57 1035 10 16 0.00 0.00
10:54 pm 22:54 Cloudy 25 -3.9 15 -9.4 66 66 ENE 12 19 30.57 1035 10 16 0.00 0.00
11:35 pm 23:35 Cloudy with Light Snow 24 -4.4 17 -8.3 75 75 ENE 10 17 30.59 1036 3 4 0.00 0.03
11:47 pm 23:47 Cloudy with Light Snow 23 -5 18 -7.8 81 81 ENE 7 11 30.59 1036 2 2 0.00 0.03
11:54 pm 23:54 Mostly Cloudy with Light Snow 23 -5 19 -7.2 85 85 ENE 9 15 30.56 1035 1 2 0.01 0.25
11:58 pm 23:58 Mostly Cloudy with Light Snow 23 -5 19 -7.2 85 85 E 10 17 30.59 1036 1 1 0.00 0.03

Powered by AerisWeather